Weather History for KALX - February, 2013

Change the Weather History Date:

Saturday, February 9, 2013

  Actual Average (KAUO) Record (KAUO)
Temperature  
Mean Temperature 50 °F -  
Max Temperature 67 °F - 75 °F (1965)
Min Temperature 34 °F - 16 °F (1971)
Degree Days  
Heating Degree Days 14    
Month to date heating degree days  
Since 1 July heating degree days  
Moisture  
Dew Point 34 °F    
Average Humidity 64    
Maximum Humidity 90    
Minimum Humidity 25    
Precipitation  
Precipitation 0.00 in - 1.11 in (2005)
Month to date precipitation  
Year to date precipitation  
Sea Level Pressure  
Sea Level Pressure 30.23 in    
Wind  
Wind Speed 3 mph (ENE)    
Max Wind Speed 7 mph    
Max Gust Speed -    
Visibility 10 miles    
Events      
T = Trace of Precipitation, MM = Missing Value Source: NWS Daily Summary

Daily Weather History Graph

Daily Weather History Graph

Search for Another Location

Airport or City:

Trip Planner

Search our weather history database for the weather conditions in past years. The results will help you decide how hot, cold, wet, or windy it might be!

Date:

Astronomy

Feb. 09, 2013 Rise Set
Actual Time 6:32 AM CST 5:24 PM CST
Civil Twilight 6:07 AM CST 5:49 PM CST
Nautical Twilight 5:37 AM CST 6:18 PM CST
Astronomical Twilight 5:09 AM CST 6:47 PM CST
Moon 5:44 AM CST (2/9) 5:04 PM CST (2/9)
Length of Visible Light 11h 42m
Length of Day
10h 51m
Waning Crescent, 0% of the Moon is Illuminated
Feb 9
Waning Crescent
Feb 10
New
Feb 17
First Quarter
Feb 25
Full
Mar 4
Last Quarter

Hourly Weather History & Observations

Time (CST) Temp. Windchill Dew Point Humidity Pressure Visibility Wind Dir Wind Speed Gust Speed Precip Events Conditions
12:15 AM 39.6 °F - 34.2 °F 81% 30.23 in 10.0 mi Calm Calm - N/A   Clear
12:35 AM 38.3 °F 33.9 °F 33.4 °F 83% 30.23 in 10.0 mi NNW 5.8 mph - N/A   Clear
12:55 AM 37.0 °F 33.3 °F 32.5 °F 84% 30.23 in 10.0 mi NNW 4.6 mph - N/A   Clear
1:15 AM 37.0 °F - 32.4 °F 83% 30.24 in 10.0 mi Calm Calm - N/A   Clear
1:35 AM 37.0 °F - 32.5 °F 84% 30.24 in 10.0 mi Calm Calm - N/A   Clear
1:55 AM 37.0 °F - 32.9 °F 85% 30.23 in 10.0 mi Calm Calm - N/A   Clear
2:15 AM 34.7 °F - 31.6 °F 89% 30.23 in 7.0 mi Calm Calm - N/A   Clear
2:55 AM 34.7 °F - 32.0 °F 90% 30.22 in 7.0 mi Calm Calm - N/A   Clear
3:15 AM 37.0 °F - 33.8 °F 88% 30.22 in 10.0 mi Calm Calm - N/A   Clear
3:35 AM 37.0 °F 33.3 °F 33.4 °F 87% 30.22 in 10.0 mi NNE 4.6 mph - N/A   Clear
3:55 AM 36.3 °F 32.5 °F 32.7 °F 87% 30.21 in 10.0 mi NNE 4.6 mph - N/A   Clear
4:15 AM 34.9 °F 32.0 °F 32.0 °F 89% 30.22 in 10.0 mi NNE 3.5 mph - N/A   Clear
4:35 AM 34.7 °F 30.6 °F 32.0 °F 90% 30.22 in 7.0 mi North 4.6 mph - N/A   Clear
4:55 AM 34.7 °F 31.8 °F 31.3 °F 87% 30.24 in 10.0 mi North 3.5 mph - N/A   Clear
5:15 AM 34.7 °F 31.8 °F 31.1 °F 87% 30.23 in 10.0 mi NNE 3.5 mph - N/A   Clear
5:35 AM 35.8 °F 31.9 °F 32.0 °F 86% 30.23 in 10.0 mi NNE 4.6 mph - N/A   Clear
5:55 AM 35.8 °F - 32.0 °F 86% 30.23 in 10.0 mi Calm Calm - N/A   Clear
6:15 AM 34.9 °F 32.0 °F 31.3 °F 87% 30.24 in 10.0 mi North 3.5 mph - N/A   Clear
6:35 AM 34.7 °F 31.8 °F 30.9 °F 86% 30.26 in 10.0 mi North 3.5 mph - N/A   Clear
6:55 AM 34.7 °F 31.8 °F 30.6 °F 85% 30.27 in 10.0 mi North 3.5 mph - N/A   Clear
7:15 AM 36.0 °F 33.3 °F 31.6 °F 84% 30.28 in 10.0 mi North 3.5 mph - N/A   Clear
7:35 AM 37.0 °F 33.3 °F 32.0 °F 82% 30.28 in 10.0 mi NNE 4.6 mph - N/A   Clear
7:55 AM 37.4 °F 32.1 °F 31.6 °F 80% 30.28 in 10.0 mi NNE 6.9 mph - N/A   Clear
8:15 AM 39.6 °F 37.4 °F 32.4 °F 75% 30.29 in 10.0 mi North 3.5 mph - N/A   Clear
8:35 AM 40.6 °F 38.6 °F 32.5 °F 73% 30.29 in 10.0 mi NE 3.5 mph - N/A   Clear
8:55 AM 42.1 °F 40.2 °F 32.4 °F 68% 30.29 in 10.0 mi ENE 3.5 mph - N/A   Clear
9:15 AM 42.8 °F 40.1 °F 32.0 °F 66% 30.29 in 10.0 mi ENE 4.6 mph - N/A   Clear
9:35 AM 46.8 °F - 33.4 °F 60% 30.29 in 10.0 mi ENE 5.8 mph - N/A   Clear
9:55 AM 49.6 °F - 33.4 °F 54% 30.29 in 10.0 mi ESE 3.5 mph - N/A   Clear
10:15 AM 50.5 °F - 32.9 °F 51% 30.29 in 10.0 mi ESE 3.5 mph - N/A   Clear
10:35 AM 53.8 °F - 33.6 °F 46% 30.28 in 10.0 mi East 5.8 mph - N/A   Clear
10:55 AM 54.7 °F - 32.9 °F 44% 30.28 in 10.0 mi ESE 4.6 mph - N/A   Clear
11:15 AM 54.7 °F - 31.6 °F 42% 30.26 in 10.0 mi ESE 6.9 mph - N/A   Clear
11:35 AM 57.2 °F - 32.0 °F 38% 30.25 in 10.0 mi East 3.5 mph - N/A   Clear
11:55 AM 57.9 °F - 32.7 °F 39% 30.24 in 10.0 mi East 4.6 mph - N/A   Clear
12:15 PM 59.9 °F - 32.9 °F 36% 30.23 in 10.0 mi East 4.6 mph - N/A   Clear
12:35 PM 60.4 °F - 32.4 °F 35% 30.23 in 10.0 mi Calm Calm - N/A   Clear
12:55 PM 62.2 °F - 33.3 °F 34% 30.22 in 10.0 mi SSW 5.8 mph - N/A   Clear
1:15 PM 62.2 °F - 31.8 °F 32% 30.21 in 10.0 mi ESE 3.5 mph - N/A   Clear
1:35 PM 63.1 °F - 31.8 °F 31% 30.20 in 10.0 mi SSW 6.9 mph - N/A   Clear
1:55 PM 64.4 °F - 32.2 °F 30% 30.20 in 10.0 mi South 6.9 mph - N/A   Clear
2:15 PM 65.3 °F - 31.6 °F 28% 30.19 in 10.0 mi SSE 5.8 mph - N/A   Clear
2:35 PM 67.3 °F - 32.4 °F 27% 30.19 in 10.0 mi East 3.5 mph - N/A   Clear
2:55 PM 67.3 °F - 31.8 °F 27% 30.19 in 10.0 mi South 5.8 mph - N/A   Clear
3:15 PM 67.3 °F - 31.1 °F 26% 30.19 in 10.0 mi South 4.6 mph - N/A   Clear
3:35 PM 67.3 °F - 30.6 °F 25% 30.19 in 10.0 mi Calm Calm - N/A   Clear
3:55 PM 67.3 °F - 30.2 °F 25% 30.19 in 10.0 mi SSW 5.8 mph - N/A   Clear
4:15 PM 66.9 °F - 30.2 °F 25% 30.19 in 10.0 mi SSE 3.5 mph - N/A   Clear
4:35 PM 64.8 °F - 30.2 °F 27% 30.19 in 10.0 mi SSE 4.6 mph - N/A   Clear
4:55 PM 62.2 °F - 30.9 °F 31% 30.19 in 10.0 mi South 3.5 mph - N/A   Clear
5:15 PM 58.3 °F - 39.6 °F 50% 30.19 in 10.0 mi Calm Calm - N/A   Clear
5:35 PM 55.6 °F - 42.3 °F 61% 30.18 in 10.0 mi Calm Calm - N/A   Clear
5:55 PM 54.7 °F - 41.2 °F 60% 30.19 in 10.0 mi Calm Calm - N/A   Clear
6:15 PM 52.2 °F - 44.6 °F 75% 30.19 in 10.0 mi Calm Calm - N/A   Clear
6:35 PM 49.6 °F - 39.0 °F 67% 30.20 in 10.0 mi Calm Calm - N/A   Clear
6:55 PM 49.6 °F - 41.9 °F 75% 30.20 in 10.0 mi Calm Calm - N/A   Clear
7:35 PM 49.6 °F - 40.6 °F 71% 30.20 in 10.0 mi Calm Calm - N/A   Clear
7:55 PM 49.6 °F - 42.8 °F 77% 30.20 in 10.0 mi Calm Calm - N/A   Clear
8:15 PM 49.6 °F - 42.8 °F 77% 30.20 in 10.0 mi Calm Calm - N/A   Clear
8:35 PM 49.1 °F - 43.0 °F 79% 30.20 in 10.0 mi Calm Calm - N/A   Clear
8:55 PM 44.4 °F - 39.0 °F 81% 30.20 in 10.0 mi Calm Calm - N/A   Clear
9:15 PM 47.3 °F - 40.3 °F 77% 30.20 in 10.0 mi Calm Calm - N/A   Clear
9:35 PM 44.6 °F - 38.8 °F 80% 30.21 in 10.0 mi Calm Calm - N/A   Clear
9:55 PM 44.6 °F - 39.2 °F 81% 30.21 in 10.0 mi Calm Calm - N/A   Clear
10:15 PM 44.2 °F - 38.5 °F 80% 30.21 in 10.0 mi Calm Calm - N/A   Clear
10:35 PM 43.9 °F - 37.9 °F 80% 30.22 in 10.0 mi Calm Calm - N/A   Clear
10:55 PM 49.6 °F - 39.7 °F 69% 30.22 in 10.0 mi Calm Calm - N/A   Clear
11:15 PM 49.6 °F - 38.5 °F 65% 30.22 in 10.0 mi Calm Calm - N/A   Clear
11:55 PM 48.7 °F - 40.6 °F 74% 30.21 in 10.0 mi Calm Calm - N/A   Clear